• Em Portugal
  • Lista de países
  • Para 7 dias
  • Temperatura da água
  • Mapas de satélite
  • Mapa do tempo
  • Widgets de tempo
  • user-avatar
    Iniciar Sessão

    Previsão horária em Boskino

    Hoje, 25 Maio, Sexta-feira

    Tempo Temperatura Precipitação Vento Pressão Humidade
    00:00 +12°C° 0 mm 2 m/s 761 mmHg 78%
    01:00 +10°C° 0 mm 2 m/s 761 mmHg 79%
    02:00 +9°C° 0 mm 2 m/s 761 mmHg 86%
    03:00 +9°C° 0 mm 2 m/s 761 mmHg 86%
    04:00 +10°C° 0 mm 2 m/s 762 mmHg 87%
    05:00 +10°C° 0 mm 2 m/s 762 mmHg 87%
    06:00 +13°C° 0 mm 2 m/s 762 mmHg 81%
    07:00 +15°C° 0 mm 2 m/s 762 mmHg 74%
    08:00 +17°C° 0 mm 2 m/s 762 mmHg 67%
    09:00 +18°C° 0 mm 3 m/s 762 mmHg 61%
    10:00 +19°C° 0 mm 3 m/s 763 mmHg 54%
    11:00 +21°C° 0 mm 3 m/s 763 mmHg 47%
    12:00 +21°C° 0 mm 3 m/s 763 mmHg 45%
    13:00 +22°C° 0 mm 3 m/s 763 mmHg 43%
    14:00 +22°C° 0 mm 3 m/s 762 mmHg 41%
    15:00 +22°C° 0 mm 3 m/s 762 mmHg 42%
    16:00 +22°C° 0 mm 3 m/s 762 mmHg 44%
    17:00 +21°C° 0 mm 3 m/s 762 mmHg 45%
    18:00 +20°C° 0 mm 2 m/s 763 mmHg 53%
    19:00 +18°C° 0 mm 2 m/s 763 mmHg 61%
    20:00 +16°C° 0 mm 2 m/s 763 mmHg 69%
    21:00 +15°C° 0 mm 2 m/s 763 mmHg 70%
    22:00 +14°C° 0 mm 2 m/s 764 mmHg 71%
    23:00 +13°C° 0 mm 1 m/s 764 mmHg 72%

    Amanhã, 26 Maio, Sábado

    Tempo Temperatura Precipitação Vento Pressão Humidade
    00:00 +12°C° 0 mm 2 m/s 765 mmHg 73%
    01:00 +12°C° 0 mm 2 m/s 765 mmHg 75%
    02:00 +10°C° 0 mm 2 m/s 765 mmHg 76%
    03:00 +10°C° 0 mm 2 m/s 766 mmHg 76%
    04:00 +10°C° 0 mm 2 m/s 766 mmHg 76%
    05:00 +12°C° 0 mm 2 m/s 766 mmHg 76%
    06:00 +14°C° 0 mm 2 m/s 766 mmHg 69%
    07:00 +16°C° 0 mm 2 m/s 766 mmHg 62%
    08:00 +17°C° 0 mm 2 m/s 766 mmHg 54%
    09:00 +19°C° 0 mm 2 m/s 766 mmHg 50%
    10:00 +20°C° 0 mm 2 m/s 766 mmHg 46%
    11:00 +21°C° 0 mm 2 m/s 766 mmHg 42%
    12:00 +23°C° 0 mm 2 m/s 765 mmHg 41%
    13:00 +24°C° 0 mm 2 m/s 765 mmHg 41%
    14:00 +24°C° 0 mm 2 m/s 765 mmHg 40%
    15:00 +24°C° 0 mm 2 m/s 765 mmHg 42%
    16:00 +24°C° 0 mm 2 m/s 764 mmHg 45%
    17:00 +24°C° 0 mm 2 m/s 764 mmHg 47%
    18:00 +21°C° 0 mm 2 m/s 764 mmHg 55%
    19:00 +19°C° 0 mm 2 m/s 764 mmHg 63%
    20:00 +18°C° 0 mm 1 m/s 764 mmHg 72%
    21:00 +16°C° 0 mm 2 m/s 764 mmHg 74%
    22:00 +15°C° 0 mm 2 m/s 764 mmHg 77%
    23:00 +14°C° 0 mm 2 m/s 764 mmHg 79%

    Depois de amanhã, 27 Maio, Domingo

    Tempo Temperatura Precipitação Vento Pressão Humidade
    00:00 +14°C° 0 mm 2 m/s 764 mmHg 81%
    01:00 +13°C° 0 mm 2 m/s 764 mmHg 84%
    02:00 +13°C° 0 mm 2 m/s 764 mmHg 86%
    03:00 +13°C° 0 mm 2 m/s 764 mmHg 86%
    04:00 +13°C° 0 mm 2 m/s 764 mmHg 86%
    05:00 +13°C° 0 mm 2 m/s 764 mmHg 85%
    06:00 +15°C° 0 mm 2 m/s 764 mmHg 79%
    07:00 +17°C° 0 mm 2 m/s 764 mmHg 72%
    08:00 +19°C° 0 mm 2 m/s 764 mmHg 66%
    09:00 +20°C° 0 mm 2 m/s 763 mmHg 60%
    10:00 +23°C° 0 mm 2 m/s 763 mmHg 54%
    11:00 +24°C° 0 mm 2 m/s 763 mmHg 48%
    12:00 +25°C° 0 mm 2 m/s 763 mmHg 46%
    13:00 +26°C° 0 mm 2 m/s 762 mmHg 45%
    14:00 +26°C° 0 mm 2 m/s 762 mmHg 43%
    15:00 +26°C° 0 mm 2 m/s 762 mmHg 46%
    16:00 +26°C° 0 mm 2 m/s 762 mmHg 48%
    17:00 +25°C° 0 mm 2 m/s 761 mmHg 51%
    18:00 +24°C° 0 mm 2 m/s 762 mmHg 57%
    19:00 +21°C° 0 mm 2 m/s 762 mmHg 64%
    20:00 +19°C° 0 mm 2 m/s 762 mmHg 70%
    21:00 +17°C° 0 mm 2 m/s 762 mmHg 65%
    22:00 +16°C° 0 mm 2 m/s 763 mmHg 61%
    23:00 +14°C° 0 mm 3 m/s 763 mmHg 56%

    28 Maio, Segunda-feira

    Tempo Temperatura Precipitação Vento Pressão Humidade
    00:00 +14°C° 0 mm 2 m/s 764 mmHg 56%
    01:00 +13°C° 0 mm 2 m/s 764 mmHg 56%
    02:00 +10°C° 0 mm 2 m/s 764 mmHg 55%
    03:00 +10°C° 0 mm 2 m/s 764 mmHg 58%
    04:00 +10°C° 0 mm 2 m/s 765 mmHg 61%
    05:00 +11°C° 0 mm 1 m/s 765 mmHg 63%
    06:00 +13°C° 0 mm 2 m/s 765 mmHg 59%
    07:00 +15°C° 0 mm 2 m/s 765 mmHg 54%
    08:00 +17°C° 0 mm 2 m/s 765 mmHg 49%
    09:00 +18°C° 0 mm 2 m/s 765 mmHg 45%
    10:00 +20°C° 0 mm 2 m/s 765 mmHg 42%
    11:00 +21°C° 0 mm 2 m/s 765 mmHg 38%
    12:00 +23°C° 0 mm 2 m/s 765 mmHg 37%
    13:00 +24°C° 0 mm 2 m/s 765 mmHg 36%
    14:00 +24°C° 0 mm 2 m/s 765 mmHg 35%
    15:00 +24°C° 0 mm 2 m/s 765 mmHg 37%
    16:00 +24°C° 0 mm 2 m/s 765 mmHg 39%
    17:00 +24°C° 0 mm 2 m/s 765 mmHg 41%
    18:00 +21°C° 0 mm 2 m/s 765 mmHg 50%
    19:00 +19°C° 0 mm 2 m/s 765 mmHg 58%
    20:00 +17°C° 0 mm 2 m/s 765 mmHg 66%
    21:00 +15°C° 0 mm 2 m/s 765 mmHg 66%
    22:00 +14°C° 0 mm 1 m/s 765 mmHg 66%
    23:00 +13°C° 0 mm 1 m/s 765 mmHg 66%

    29 Maio, Terça-feira

    Tempo Temperatura Precipitação Vento Pressão Humidade
    00:00 +12°C° 0 mm 1 m/s 765 mmHg 66%
    01:00 +12°C° 0 mm 1 m/s 766 mmHg 67%
    02:00 +11°C° 0 mm 1 m/s 766 mmHg 67%
    03:00 +12°C° 0 mm 1 m/s 766 mmHg 70%
    04:00 +12°C° 0 mm 1 m/s 766 mmHg 72%
    05:00 +12°C° 0 mm 1 m/s 766 mmHg 75%
    06:00 +15°C° 0 mm 1 m/s 766 mmHg 69%
    07:00 +18°C° 0 mm 1 m/s 766 mmHg 62%
    08:00 +21°C° 0 mm 1 m/s 765 mmHg 56%
    09:00 +22°C° 0 mm 1 m/s 765 mmHg 51%
    10:00 +24°C° 0 mm 1 m/s 765 mmHg 47%
    11:00 +25°C° 0 mm 2 m/s 765 mmHg 43%
    12:00 +26°C° 0 mm 2 m/s 764 mmHg 41%
    13:00 +26°C° 0 mm 2 m/s 764 mmHg 40%
    14:00 +27°C° 0 mm 2 m/s 763 mmHg 38%
    15:00 +27°C° 0 mm 1 m/s 763 mmHg 40%
    16:00 +27°C° 0 mm 1 m/s 762 mmHg 42%
    17:00 +26°C° 0 mm 1 m/s 762 mmHg 45%
    18:00 +24°C° 0 mm 1 m/s 762 mmHg 53%
    19:00 +22°C° 0 mm 1 m/s 761 mmHg 61%
    20:00 +20°C° 0 mm 1 m/s 761 mmHg 69%
    21:00 +19°C° 0 mm 1 m/s 761 mmHg 72%
    22:00 +18°C° 0 mm 1 m/s 761 mmHg 74%
    23:00 +16°C° 0 mm 1 m/s 761 mmHg 77%

    30 Maio, Quarta-feira

    Tempo Temperatura Precipitação Vento Pressão Humidade
    00:00 +16°C° 0 mm 1 m/s 761 mmHg 78%
    01:00 +15°C° 0 mm 1 m/s 761 mmHg 80%
    02:00 +15°C° 0 mm 1 m/s 760 mmHg 82%
    03:00 +15°C° 0 mm 1 m/s 760 mmHg 82%
    04:00 +15°C° 0 mm 2 m/s 760 mmHg 82%
    05:00 +15°C° 0 mm 2 m/s 760 mmHg 82%
    06:00 +17°C° 0 mm 2 m/s 759 mmHg 75%
    07:00 +19°C° 0 mm 2 m/s 759 mmHg 68%
    08:00 +21°C° 0 mm 2 m/s 759 mmHg 61%
    09:00 +24°C° 0 mm 3 m/s 759 mmHg 55%
    10:00 +25°C° 0 mm 3 m/s 758 mmHg 50%
    11:00 +26°C° 0 mm 3 m/s 758 mmHg 44%
    12:00 +27°C° 0 mm 4 m/s 758 mmHg 43%
    13:00 +27°C° 0 mm 4 m/s 757 mmHg 42%
    14:00 +28°C° 0 mm 4 m/s 757 mmHg 41%
    15:00 +27°C° 0 mm 4 m/s 757 mmHg 43%
    16:00 +27°C° 0 mm 4 m/s 756 mmHg 45%
    17:00 +27°C° 0 mm 4 m/s 756 mmHg 47%
    18:00 +25°C° 0 mm 3 m/s 755 mmHg 56%
    19:00 +23°C° 0 mm 2 m/s 755 mmHg 64%
    20:00 +20°C° 0 mm 2 m/s 755 mmHg 73%
    21:00 +19°C° 0 mm 2 m/s 755 mmHg 75%
    22:00 +18°C° 0 mm 2 m/s 755 mmHg 77%
    23:00 +17°C° 0 mm 2 m/s 755 mmHg 79%
    Mostrar mais